{"data":{"norad_id":57373,"epoch":"2026-05-24T18:41:54.225312Z","epoch_age_seconds":88144,"freshness":"FRESH","line1":"1 57373U 23099AX  26144.77909983 -.00001636  00000+0 -49971-4 0  9998","line2":"2 57373  43.0020 172.1699 0000733 308.1051  51.9735 15.27557328157831","mean_motion":15.27557328,"eccentricity":7.33e-5,"inclination_deg":43.002,"raan_deg":172.1699,"arg_perigee_deg":308.1051,"mean_anomaly_deg":51.9735,"bstar":-4.9971e-5,"rev_number":15783,"period_min":94.268147820374,"perigee_km":482.61405508642,"apogee_km":483.61991492062,"semimajor_km":6861.2539850035,"source":"CELESTRAK","updated_at":"2026-05-25T13:38:18.295400Z"}}